Location: ??????
(41.3164°N, 22.6615°E)
Time: 22:28:09
(UTC+00:00)

FENGYUN 1C DEB - Visible Passes

Search period start: 10 August 2022 00:00
Search period end: 20 August 2022 00:00
Orbit: 799 x 864 km, 98.9° (Epoch: 08 August)

Date Brightness Start Highest point End Pass type
(mag) Time Alt. Az. Time Alt. Az. Time Alt. Az.
10 Aug ? 20:18:36 41° ENE 20:18:55 42° ENE 20:24:07 10° N visible
10 Aug ? 22:00:12 25° W 22:00:12 25° W 22:03:56 10° NW visible
11 Aug ? 20:00:58 29° ENE 20:01:33 30° ENE 20:06:20 10° N visible
11 Aug ? 21:42:34 36° WNW 21:42:34 36° WNW 21:46:50 10° NNW visible
12 Aug ? 19:43:19 21° ENE 19:44:16 22° ENE 19:48:24 10° NNE visible
12 Aug ? 21:24:55 50° WNW 21:24:55 50° WNW 21:29:34 10° NNW visible
13 Aug ? 19:25:40 15° ENE 19:26:59 16° ENE 19:30:13 10° NNE visible
13 Aug ? 21:07:16 67° NW 21:07:16 67° NW 21:12:09 10° NNW visible
14 Aug ? 19:08:08 10° ENE 19:09:47 11° NE 19:11:25 10° NE visible
14 Aug ? 20:49:37 69° NNE 20:49:37 69° NNE 20:54:39 10° N visible
14 Aug ? 22:31:13 13° WNW 22:31:13 13° WNW 22:32:50 10° WNW visible
15 Aug ? 20:31:58 52° ENE 20:31:58 52° ENE 20:37:02 10° N visible
15 Aug ? 22:13:34 19° WNW 22:13:34 19° WNW 22:16:19 10° NW visible
16 Aug ? 20:14:19 38° ENE 20:14:19 38° ENE 20:19:20 10° N visible
16 Aug ? 21:55:55 26° WNW 21:55:55 26° WNW 21:59:22 10° NW visible
17 Aug ? 19:56:40 28° ENE 19:56:51 28° ENE 20:01:29 10° N visible
17 Aug ? 21:38:15 36° WNW 21:38:15 36° WNW 21:42:11 10° NNW visible
18 Aug ? 19:39:00 20° ENE 19:39:32 20° ENE 19:43:29 10° NNE visible
18 Aug ? 21:20:36 48° NW 21:20:36 48° NW 21:24:50 10° NNW visible
19 Aug ? 19:21:21 14° ENE 19:22:16 15° ENE 19:25:11 10° NNE visible
19 Aug ? 21:02:57 58° NNW 21:02:57 58° NNW 21:07:23 10° NNW visible
